TimeEDT,TemperatureF,Dew PointF,Humidity,Sea Level PressureIn,VisibilityMPH,Wind Direction,Wind SpeedMPH,Gust SpeedMPH,PrecipitationIn,Events,Conditions,WindDirDegrees,DateUTC
12:15 AM,69.8,69.8,100,29.79,5.0,Calm,Calm,-,N/A,,Scattered Clouds,0,2013-06-28 04:15:00
12:35 AM,69.8,68.0,94,29.79,7.0,Calm,Calm,-,N/A,,Clear,0,2013-06-28 04:35:00
12:55 AM,69.8,68.0,94,29.78,7.0,Calm,Calm,-,N/A,,Clear,0,2013-06-28 04:55:00
1:15 AM,69.8,68.0,94,29.78,1.8,Calm,Calm,-,N/A,,Mist,0,2013-06-28 05:15:00
1:35 AM,69.8,68.0,94,29.78,5.0,Calm,Calm,-,N/A,,Clear,0,2013-06-28 05:35:00
1:55 AM,69.8,68.0,94,29.78,5.0,Calm,Calm,-,N/A,,Clear,0,2013-06-28 05:55:00
2:15 AM,68.0,68.0,100,29.78,3.0,Calm,Calm,-,N/A,,Clear,0,2013-06-28 06:15:00
2:35 AM,69.8,68.0,94,29.78,1.8,Calm,Calm,-,N/A,,Mist,0,2013-06-28 06:35:00
2:55 AM,68.0,66.2,94,29.77,1.0,Calm,Calm,-,N/A,,Mist,0,2013-06-28 06:55:00
3:15 AM,68.0,68.0,100,29.77,7.0,Calm,Calm,-,N/A,,Clear,0,2013-06-28 07:15:00
3:35 AM,68.0,68.0,100,29.76,4.0,Calm,Calm,-,N/A,,Clear,0,2013-06-28 07:35:00
3:55 AM,68.0,66.2,94,29.76,0.5,Calm,Calm,-,N/A,Fog,Fog,0,2013-06-28 07:55:00
4:15 AM,66.2,66.2,100,29.76,0.8,Calm,Calm,-,N/A,,Mist,0,2013-06-28 08:15:00
4:35 AM,66.2,64.4,94,29.76,4.0,Calm,Calm,-,N/A,,Scattered Clouds,0,2013-06-28 08:35:00
4:55 AM,68.0,66.2,94,29.75,5.0,Calm,Calm,-,N/A,,Clear,0,2013-06-28 08:55:00
5:15 AM,66.2,64.4,94,29.75,2.5,Calm,Calm,-,N/A,,Clear,0,2013-06-28 09:15:00
5:35 AM,64.4,64.4,100,29.75,4.0,Calm,Calm,-,N/A,,Clear,0,2013-06-28 09:35:00
5:55 AM,64.4,64.4,100,29.75,5.0,Calm,Calm,-,N/A,,Clear,0,2013-06-28 09:55:00
6:15 AM,64.4,64.4,100,29.75,1.8,Calm,Calm,-,N/A,,Mist,0,2013-06-28 10:15:00
6:35 AM,64.4,64.4,100,29.75,7.0,Calm,Calm,-,N/A,,Clear,0,2013-06-28 10:35:00
6:55 AM,64.4,64.4,100,29.76,4.0,Calm,Calm,-,N/A,,Clear,0,2013-06-28 10:55:00
7:15 AM,68.0,66.2,94,29.76,5.0,Calm,Calm,-,N/A,,Clear,0,2013-06-28 11:15:00
7:35 AM,69.8,68.0,94,29.75,7.0,Calm,Calm,-,N/A,,Clear,0,2013-06-28 11:35:00
7:55 AM,71.6,69.8,94,29.76,10.0,Calm,Calm,-,N/A,,Clear,0,2013-06-28 11:55:00
8:55 AM,78.8,69.8,74,29.76,10.0,WSW,3.5,-,N/A,,Clear,250,2013-06-28 12:55:00
9:15 AM,78.8,68.0,69,29.76,10.0,West,4.6,-,N/A,,Clear,270,2013-06-28 13:15:00
9:35 AM,80.6,69.8,70,29.76,10.0,SW,8.1,-,N/A,,Clear,230,2013-06-28 13:35:00
9:55 AM,78.8,69.8,74,29.76,10.0,SW,5.8,-,N/A,,Clear,230,2013-06-28 13:55:00
10:15 AM,78.8,68.0,69,29.74,10.0,WSW,5.8,-,N/A,,Clear,240,2013-06-28 14:15:00
10:35 AM,80.6,68.0,65,29.74,10.0,WSW,5.8,-,N/A,,Clear,240,2013-06-28 14:35:00
10:55 AM,82.4,68.0,62,29.75,10.0,WSW,5.8,-,N/A,,Clear,250,2013-06-28 14:55:00
11:15 AM,82.4,69.8,66,29.74,10.0,SSW,4.6,-,N/A,,Clear,210,2013-06-28 15:15:00
11:35 AM,82.4,69.8,66,29.74,10.0,SW,4.6,-,N/A,,Clear,220,2013-06-28 15:35:00
11:55 AM,86.0,66.2,51,29.74,10.0,SW,9.2,-,N/A,,Clear,230,2013-06-28 15:55:00
12:15 PM,82.4,64.4,54,29.74,10.0,SW,5.8,-,N/A,,Clear,230,2013-06-28 16:15:00
12:35 PM,86.0,68.0,55,29.74,10.0,West,9.2,-,N/A,,Clear,260,2013-06-28 16:35:00
12:55 PM,87.8,68.0,52,29.73,10.0,WSW,8.1,-,N/A,,Clear,240,2013-06-28 16:55:00
1:15 PM,87.8,68.0,52,29.73,10.0,WSW,9.2,-,N/A,,Clear,240,2013-06-28 17:15:00
1:35 PM,87.8,64.4,46,29.73,10.0,SW,10.4,-,N/A,,Clear,220,2013-06-28 17:35:00
1:55 PM,89.6,66.2,46,29.72,10.0,SW,11.5,16.1,N/A,,Clear,230,2013-06-28 17:55:00
2:15 PM,89.6,66.2,46,29.71,10.0,West,8.1,-,N/A,,Clear,260,2013-06-28 18:15:00
2:35 PM,89.6,68.0,49,29.70,10.0,WSW,6.9,-,N/A,,Clear,250,2013-06-28 18:35:00
2:55 PM,89.6,64.4,43,29.69,10.0,West,8.1,-,N/A,,Scattered Clouds,260,2013-06-28 18:55:00
3:15 PM,89.6,62.6,40,29.68,10.0,West,10.4,-,N/A,,Scattered Clouds,260,2013-06-28 19:15:00
3:35 PM,89.6,62.6,40,29.67,10.0,West,6.9,-,N/A,,Scattered Clouds,260,2013-06-28 19:35:00
3:55 PM,89.6,60.8,38,29.66,10.0,WSW,9.2,-,N/A,,Scattered Clouds,250,2013-06-28 19:55:00
4:15 PM,89.6,62.6,40,29.66,10.0,West,5.8,-,N/A,,Mostly Cloudy,270,2013-06-28 20:15:00
4:35 PM,89.6,62.6,40,29.65,10.0,West,5.8,-,N/A,,Mostly Cloudy,280,2013-06-28 20:35:00
4:55 PM,87.8,62.6,43,29.66,10.0,West,4.6,-,N/A,,Mostly Cloudy,280,2013-06-28 20:55:00
5:15 PM,86.0,62.6,45,29.65,10.0,Calm,Calm,-,N/A,,Mostly Cloudy,0,2013-06-28 21:15:00
5:35 PM,87.8,64.4,46,29.64,10.0,NW,3.5,-,N/A,,Scattered Clouds,310,2013-06-28 21:35:00
5:55 PM,86.0,64.4,48,29.64,10.0,Calm,Calm,-,N/A,,Clear,0,2013-06-28 21:55:00
6:15 PM,86.0,64.4,48,29.64,10.0,Calm,Calm,-,N/A,,Scattered Clouds,0,2013-06-28 22:15:00
6:35 PM,84.2,66.2,55,29.63,10.0,Calm,Calm,-,N/A,,Mostly Cloudy,0,2013-06-28 22:35:00
6:55 PM,78.8,68.0,69,29.64,10.0,ESE,4.6,-,N/A,,Mostly Cloudy,110,2013-06-28 22:55:00
7:15 PM,73.4,68.0,83,29.65,1.8,South,5.8,-,0.10,Rain,Heavy Rain,190,2013-06-28 23:15:00
7:35 PM,69.8,68.0,94,29.67,4.0,South,5.8,19.6,0.17,Rain,Heavy Rain,170,2013-06-28 23:35:00